When you browse on this site, cookies collect data to enhance your experience and personalize the content and advertising you see.
Visit our Privacy Policy to learn more. By continuing to use the site, you agree to this use of cookies and data.
  • En España
  • Lista de países
  • Para 7 días
  • Temperatura del agua
  • El tiempo en el mapa
  • Informadores
  • user-avatar
    Iniciar sesión

    Tiempo cada hora Tirana

    Hoy, 30 Mayo, Sábado

    Tiempo Temperatura Precipitaciones Viento Presión Humedad
    00:00 +14°C° 0 mm 1 mps 754 mmHg 78%
    01:00 +13°C° 0 mm 2 mps 754 mmHg 78%
    02:00 +13°C° 0 mm 2 mps 754 mmHg 78%
    03:00 +13°C° 0 mm 2 mps 754 mmHg 79%
    04:00 +13°C° 0 mm 2 mps 754 mmHg 79%
    05:00 +14°C° 0 mm 2 mps 754 mmHg 74%
    06:00 +16°C° 0 mm 2 mps 754 mmHg 69%
    07:00 +17°C° 0 mm 2 mps 754 mmHg 64%
    08:00 +19°C° 0.1 mm 2 mps 754 mmHg 60%
    09:00 +20°C° 0.1 mm 2 mps 754 mmHg 55%
    10:00 +21°C° 0.1 mm 2 mps 754 mmHg 51%
    11:00 +21°C° 0.1 mm 3 mps 753 mmHg 51%
    12:00 +22°C° 0.1 mm 3 mps 753 mmHg 51%
    13:00 +22°C° 0.1 mm 3 mps 753 mmHg 50%
    14:00 +22°C° 0 mm 3 mps 753 mmHg 51%
    15:00 +21°C° 0 mm 3 mps 753 mmHg 52%
    16:00 +21°C° 0 mm 2 mps 752 mmHg 52%
    17:00 +19°C° 0.1 mm 2 mps 752 mmHg 59%
    18:00 +19°C° 0.1 mm 1 mps 752 mmHg 66%
    19:00 +16°C° 0.1 mm 1 mps 752 mmHg 74%
    20:00 +16°C° 0.1 mm 1 mps 753 mmHg 74%
    21:00 +15°C° 0.1 mm 2 mps 753 mmHg 75%
    22:00 +15°C° 0.1 mm 2 mps 753 mmHg 75%
    23:00 +15°C° 0.1 mm 2 mps 753 mmHg 73%

    Mañana, 31 Mayo, Domingo

    Tiempo Temperatura Precipitaciones Viento Presión Humedad
    00:00 +14°C° 0.1 mm 3 mps 753 mmHg 72%
    01:00 +14°C° 0.1 mm 3 mps 753 mmHg 70%
    02:00 +14°C° 0.2 mm 3 mps 753 mmHg 71%
    03:00 +14°C° 0.2 mm 3 mps 752 mmHg 71%
    04:00 +13°C° 0.2 mm 3 mps 752 mmHg 71%
    05:00 +14°C° 0.2 mm 3 mps 752 mmHg 69%
    06:00 +17°C° 0.2 mm 3 mps 752 mmHg 67%
    07:00 +18°C° 0.2 mm 3 mps 752 mmHg 65%
    08:00 +19°C° 0.2 mm 3 mps 752 mmHg 62%
    09:00 +20°C° 0.2 mm 4 mps 752 mmHg 58%
    10:00 +21°C° 0.2 mm 4 mps 752 mmHg 54%
    11:00 +21°C° 0.5 mm 4 mps 752 mmHg 57%
    12:00 +21°C° 0.5 mm 4 mps 752 mmHg 59%
    13:00 +21°C° 0.5 mm 5 mps 751 mmHg 62%
    14:00 +21°C° 0.3 mm 4 mps 751 mmHg 63%
    15:00 +21°C° 0.3 mm 4 mps 751 mmHg 64%
    16:00 +20°C° 0.3 mm 3 mps 751 mmHg 65%
    17:00 +19°C° 0.1 mm 3 mps 751 mmHg 71%
    18:00 +17°C° 0.1 mm 2 mps 751 mmHg 77%
    19:00 +16°C° 0.1 mm 2 mps 751 mmHg 83%
    20:00 +16°C° 0.1 mm 2 mps 751 mmHg 85%
    21:00 +15°C° 0.1 mm 2 mps 751 mmHg 87%
    22:00 +15°C° 0.1 mm 2 mps 752 mmHg 89%
    23:00 +14°C° 0.3 mm 2 mps 752 mmHg 89%

    Pasado mañana, 1 Junio, Lunes

    Tiempo Temperatura Precipitaciones Viento Presión Humedad
    00:00 +14°C° 0.3 mm 2 mps 751 mmHg 90%
    01:00 +14°C° 0.3 mm 1 mps 751 mmHg 90%
    02:00 +14°C° 0.3 mm 2 mps 751 mmHg 91%
    03:00 +13°C° 0.3 mm 2 mps 751 mmHg 91%
    04:00 +13°C° 0.3 mm 2 mps 751 mmHg 91%
    05:00 +14°C° 0.3 mm 2 mps 751 mmHg 86%
    06:00 +16°C° 0.3 mm 2 mps 751 mmHg 81%
    07:00 +17°C° 0.3 mm 3 mps 751 mmHg 77%
    08:00 +18°C° 0.1 mm 2 mps 751 mmHg 70%
    09:00 +20°C° 0.1 mm 2 mps 751 mmHg 64%
    10:00 +21°C° 0.1 mm 2 mps 751 mmHg 58%
    11:00 +21°C° 0 mm 3 mps 750 mmHg 57%
    12:00 +21°C° 0 mm 3 mps 750 mmHg 57%
    13:00 +22°C° 0 mm 4 mps 750 mmHg 56%
    14:00 +21°C° 0 mm 4 mps 750 mmHg 57%
    15:00 +21°C° 0 mm 5 mps 750 mmHg 58%
    16:00 +21°C° 0 mm 5 mps 750 mmHg 59%
    17:00 +19°C° 0 mm 4 mps 750 mmHg 66%
    18:00 +18°C° 0 mm 4 mps 750 mmHg 73%
    19:00 +17°C° 0 mm 3 mps 750 mmHg 80%
    20:00 +16°C° 0 mm 2 mps 750 mmHg 81%
    21:00 +15°C° 0 mm 2 mps 750 mmHg 83%
    22:00 +15°C° 0 mm 1 mps 750 mmHg 85%
    23:00 +14°C° 0 mm 1 mps 750 mmHg 86%

    2 Junio, Martes

    Tiempo Temperatura Precipitaciones Viento Presión Humedad
    00:00 +14°C° 0 mm 1 mps 750 mmHg 86%
    01:00 +14°C° 0 mm 2 mps 750 mmHg 87%
    02:00 +14°C° 0 mm 2 mps 750 mmHg 86%
    03:00 +13°C° 0 mm 2 mps 750 mmHg 86%
    04:00 +13°C° 0 mm 2 mps 750 mmHg 85%
    05:00 +15°C° 0 mm 1 mps 750 mmHg 79%
    06:00 +18°C° 0 mm 1 mps 750 mmHg 72%
    07:00 +19°C° 0 mm 1 mps 750 mmHg 66%
    08:00 +20°C° 0 mm 2 mps 750 mmHg 61%
    09:00 +21°C° 0 mm 3 mps 750 mmHg 56%
    10:00 +22°C° 0 mm 3 mps 750 mmHg 51%
    11:00 +23°C° 0 mm 5 mps 750 mmHg 49%
    12:00 +23°C° 0 mm 6 mps 749 mmHg 46%
    13:00 +24°C° 0 mm 7 mps 749 mmHg 44%
    14:00 +23°C° 0 mm 7 mps 749 mmHg 46%
    15:00 +22°C° 0 mm 8 mps 749 mmHg 49%
    16:00 +22°C° 0 mm 8 mps 749 mmHg 52%
    17:00 +20°C° 0 mm 7 mps 749 mmHg 61%
    18:00 +19°C° 0 mm 6 mps 749 mmHg 69%
    19:00 +16°C° 0 mm 6 mps 749 mmHg 78%
    20:00 +15°C° 0 mm 5 mps 749 mmHg 79%
    21:00 +15°C° 0 mm 4 mps 750 mmHg 80%
    22:00 +14°C° 0 mm 3 mps 750 mmHg 82%
    23:00 +14°C° 0 mm 3 mps 750 mmHg 81%

    3 Junio, Miércoles

    Tiempo Temperatura Precipitaciones Viento Presión Humedad
    00:00 +13°C° 0 mm 3 mps 750 mmHg 80%
    01:00 +13°C° 0 mm 3 mps 749 mmHg 79%
    02:00 +13°C° 0 mm 3 mps 749 mmHg 79%
    03:00 +12°C° 0 mm 3 mps 749 mmHg 78%
    04:00 +12°C° 0 mm 3 mps 749 mmHg 78%
    05:00 +14°C° 0 mm 3 mps 749 mmHg 74%
    06:00 +17°C° 0 mm 2 mps 749 mmHg 69%
    07:00 +18°C° 0 mm 2 mps 749 mmHg 65%
    08:00 +20°C° 0 mm 2 mps 749 mmHg 59%
    09:00 +21°C° 0 mm 2 mps 749 mmHg 53%
    10:00 +24°C° 0 mm 2 mps 749 mmHg 48%
    11:00 +24°C° 0 mm 2 mps 749 mmHg 47%
    12:00 +24°C° 0 mm 3 mps 749 mmHg 47%
    13:00 +25°C° 0 mm 3 mps 749 mmHg 46%
    14:00 +23°C° 0 mm 4 mps 749 mmHg 47%
    15:00 +23°C° 0 mm 4 mps 749 mmHg 48%
    16:00 +23°C° 0 mm 4 mps 748 mmHg 48%
    17:00 +21°C° 0 mm 3 mps 749 mmHg 57%
    18:00 +19°C° 0 mm 3 mps 749 mmHg 66%
    19:00 +18°C° 0 mm 3 mps 749 mmHg 75%
    20:00 +18°C° 0.4 mm 2 mps 749 mmHg 77%
    21:00 +17°C° 0.4 mm 2 mps 750 mmHg 80%
    22:00 +18°C° 0.4 mm 1 mps 750 mmHg 82%
    23:00 +17°C° 0.6 mm 2 mps 750 mmHg 85%

    4 Junio, Jueves

    Tiempo Temperatura Precipitaciones Viento Presión Humedad
    00:00 +16°C° 0.6 mm 3 mps 750 mmHg 87%
    01:00 +16°C° 0.6 mm 3 mps 749 mmHg 89%
    02:00 +16°C° 0.1 mm 3 mps 749 mmHg 87%
    03:00 +16°C° 0.1 mm 3 mps 749 mmHg 84%
    04:00 +16°C° 0.1 mm 3 mps 749 mmHg 82%
    05:00 +16°C° 0.2 mm 3 mps 749 mmHg 82%
    06:00 +16°C° 0.2 mm 2 mps 749 mmHg 81%
    07:00 +17°C° 0.2 mm 2 mps 750 mmHg 81%
    08:00 +17°C° 0.1 mm 3 mps 750 mmHg 79%
    09:00 +18°C° 0.1 mm 3 mps 750 mmHg 78%
    10:00 +19°C° 0.1 mm 4 mps 750 mmHg 76%
    11:00 +19°C° 0.2 mm 4 mps 750 mmHg 74%
    12:00 +20°C° 0.2 mm 5 mps 750 mmHg 72%
    13:00 +21°C° 0.2 mm 5 mps 751 mmHg 70%
    14:00 +21°C° 0.6 mm 5 mps 751 mmHg 71%
    15:00 +21°C° 0.6 mm 6 mps 751 mmHg 72%
    16:00 +22°C° 0.6 mm 6 mps 750 mmHg 73%
    17:00 +20°C° 0.7 mm 5 mps 751 mmHg 77%
    18:00 +19°C° 0.7 mm 5 mps 751 mmHg 82%
    19:00 +18°C° 0.7 mm 4 mps 751 mmHg 87%
    20:00 +18°C° 0.3 mm 4 mps 751 mmHg 87%
    21:00 +17°C° 0.3 mm 4 mps 751 mmHg 87%
    22:00 +17°C° 0.3 mm 4 mps 751 mmHg 88%
    23:00 +17°C° 0.1 mm 3 mps 751 mmHg 87%
    Mostrar más